Oakland, CA

6:19 AM PDT on June 23, 2018 (GMT -0700)
Metro Oakland International

Weather History for KOAK - October, 2017

Change the Weather History Date:

Monday, October 30, 2017

  Actual Average Record
Temperature  
Mean Temperature 58 °F 58 °F  
Max Temperature 62 °F 67 °F 84 °F (1966)
Min Temperature 54 °F 49 °F 38 °F (1948)
Degree Days  
Heating Degree Days 7 7  
Month to date heating degree days 111 144  
Since 1 July heating degree days 184 344  
Cooling Degree Days 0 0  
Month to date cooling degree days 22 12  
Year to date cooling degree days 312 137  
Growing Degree Days 8 (Base 50)    
Moisture  
Dew Point 50 °F    
Average Humidity 79    
Maximum Humidity 93    
Minimum Humidity 64    
Precipitation  
Precipitation 0.00 in 0.07 in 0.55 in (2016)
Month to date precipitation 0.13 1.13  
Year to date precipitation 20.25 14.63  
Sea Level Pressure  
Sea Level Pressure 29.87 in    
Wind  
Wind Speed 15 mph (WSW)    
Max Wind Speed 24 mph    
Max Gust Speed 29 mph    
Visibility 10 miles    
Events      
T = Trace of Precipitation, MM = Missing Value Source: NWS Daily Summary

Daily Weather History Graph

Daily Weather History Graph

Search for Another Location

Airport or City:

Astronomy

Oct. 30, 2017 Rise Set
Actual Time 7:32 AM PDT 6:12 PM PDT
Civil Twilight 7:05 AM PDT 6:39 PM PDT
Nautical Twilight 6:34 AM PDT 7:09 PM PDT
Astronomical Twilight 6:03 AM PDT 7:40 PM PDT
Moon 3:57 PM PDT (10/30) 2:28 AM PDT (10/30)
Length of Visible Light 11h 33m
Length of Day
10h 39m
Waxing Gibbous, 77% of the Moon is Illuminated
Oct 30
Waxing Gibbous
Nov 3
Full
Nov 10
Last Quarter
Nov 18
New
Nov 26
First Quarter

Hourly Weather History & Observations

Time (PDT) Temp. Dew Point Humidity Pressure Visibility Wind Dir Wind Speed Gust Speed Precip Events Conditions
12:35 AM 55.0 °F 52.0 °F 89% 29.88 in 10.0 mi WSW 13.8 mph - N/A   Overcast
12:53 AM 55.0 °F 53.1 °F 93% 29.88 in 10.0 mi WSW 13.8 mph - N/A   Overcast
1:25 AM 54.0 °F 53.1 °F 97% 29.88 in 10.0 mi WSW 13.8 mph - N/A   Overcast
1:53 AM 54.0 °F 52.0 °F 93% 29.88 in 10.0 mi SW 12.7 mph - N/A   Overcast
2:00 AM 55.0 °F 52.0 °F 89% 29.88 in 10.0 mi WSW 18.4 mph - N/A   Overcast
2:53 AM 55.0 °F 52.0 °F 89% 29.88 in 10.0 mi WSW 16.1 mph - N/A   Overcast
3:53 AM 54.0 °F 52.0 °F 93% 29.88 in 10.0 mi WSW 17.3 mph - N/A   Overcast
4:53 AM 55.0 °F 52.0 °F 89% 29.88 in 10.0 mi SW 15.0 mph - N/A   Overcast
5:53 AM 55.0 °F 51.1 °F 86% 29.87 in 10.0 mi WSW 15.0 mph - N/A   Overcast
6:40 AM 55.0 °F 51.1 °F 86% 29.87 in 10.0 mi WSW 15.0 mph - N/A   Overcast
6:53 AM 55.0 °F 51.1 °F 86% 29.87 in 10.0 mi SW 15.0 mph - N/A   Overcast
7:53 AM 55.0 °F 51.1 °F 86% 29.88 in 7.0 mi WSW 12.7 mph - N/A   Overcast
8:53 AM 55.9 °F 51.1 °F 84% 29.89 in 10.0 mi SW 13.8 mph - N/A   Overcast
9:53 AM 55.9 °F 51.1 °F 84% 29.89 in 10.0 mi SSW 16.1 mph - N/A   Overcast
10:53 AM 57.0 °F 50.0 °F 77% 29.89 in 10.0 mi SW 15.0 mph - N/A   Overcast
11:53 AM 60.1 °F 50.0 °F 69% 29.88 in 10.0 mi SW 16.1 mph - N/A   Mostly Cloudy
12:53 PM 61.0 °F 50.0 °F 67% 29.88 in 10.0 mi WSW 15.0 mph - N/A   Mostly Cloudy
1:18 PM 61.0 °F 50.0 °F 67% 29.87 in 10.0 mi WSW 13.8 mph - N/A   Scattered Clouds
1:53 PM 61.0 °F 50.0 °F 67% 29.86 in 10.0 mi WSW 16.1 mph - N/A   Scattered Clouds
2:14 PM 60.1 °F 48.9 °F 67% 29.85 in 10.0 mi WSW 18.4 mph - N/A   Mostly Cloudy
2:53 PM 61.0 °F 48.9 °F 64% 29.85 in 10.0 mi WSW 20.7 mph - N/A   Partly Cloudy
3:53 PM 61.0 °F 48.9 °F 64% 29.84 in 10.0 mi WSW 20.7 mph - N/A   Partly Cloudy
4:53 PM 57.9 °F 48.0 °F 70% 29.83 in 10.0 mi WSW 23.0 mph - N/A   Scattered Clouds
5:21 PM 57.0 °F 48.9 °F 74% 29.83 in 10.0 mi West 20.7 mph - N/A   Mostly Cloudy
5:53 PM 57.0 °F 48.0 °F 72% 29.85 in 10.0 mi West 18.4 mph - N/A   Mostly Cloudy
6:53 PM 55.9 °F 48.0 °F 75% 29.85 in 10.0 mi West 11.5 mph - N/A   Mostly Cloudy
7:53 PM 55.9 °F 48.0 °F 75% 29.86 in 10.0 mi West 15.0 mph - N/A   Overcast
8:53 PM 55.9 °F 48.0 °F 75% 29.85 in 10.0 mi West 15.0 mph - N/A   Mostly Cloudy
9:53 PM 55.9 °F 48.0 °F 75% 29.86 in 10.0 mi West 11.5 mph - N/A   Overcast
10:53 PM 55.9 °F 48.9 °F 77% 29.86 in 10.0 mi WSW 11.5 mph - N/A   Overcast
11:27 PM 57.0 °F 48.9 °F 74% 29.87 in 10.0 mi West 9.2 mph - N/A   Overcast
11:53 PM 55.9 °F 48.9 °F 77% 29.88 in 10.0 mi WSW 10.4 mph - N/A   Overcast